Location: River House Observatory
(37.8577°N, 76.3548°W)
Time: 02:12:17
(UTC-04:00)

Daily predictions for brighter satellites

Satellite Brightness Start Highest point End
(mag) Time Altitude Azimuth Time Altitude Azimuth Time Altitude Azimuth
ATLAS 3B R/B 4.2 01:39:39 33° NNW 01:39:39 33° NNW 01:44:43 10° NNE
CZ-4C R/B 4.3 02:13:23 22° N 02:13:23 22° N 02:15:49 10° NNE
Cosmos 2369 Rocket 4.3 02:34:29 10° NNW 02:36:21 21° N 02:36:21 21° N
Cosmos 1943 Rocket 4.0 02:42:46 10° N 02:47:29 26° ENE 02:47:45 26° ENE
CENTAUR R/B 3.6 03:00:45 38° E 03:00:45 38° E 03:05:29 10° NE
ARIANE 5 R/B 4.4 02:56:32 10° NNE 02:59:36 27° ENE 02:59:36 27° ENE
ATLAS 5 CENTAUR R/B 3.5 03:20:45 32° NNE 03:20:45 32° NNE 03:23:34 10° NNE
Cosmos 2315 Rocket 4.2 03:31:06 69° NNE 03:31:06 69° NNE 03:36:37 10° N
CZ-2D R/B 2.7 03:35:01 10° NNE 03:39:27 54° ENE 03:39:27 54° ENE
BREEZE-M DEB (TANK) 4.1 03:49:54 49° N 03:50:29 53° NE 03:58:02 10° ESE
Resurs 1-4 Rocket 2.1 03:55:15 10° NNE 04:00:03 74° N 04:00:03 74° N
CZ-2D R/B 4.1 04:04:27 10° NNE 04:08:22 55° ENE 04:08:22 55° ENE
Cosmos 1709 Rocket 4.4 04:05:18 10° NNW 04:10:20 44° WNW 04:10:20 44° WNW
SL-16 R/B 2.4 04:12:41 63° WSW 04:12:41 63° WSW 04:18:50 10° NNW
SeaSat 1 4.1 04:11:36 10° ESE 04:15:59 33° ENE 04:20:23 10° N
UNKNOWN OBJECT B 4.0 04:12:17 10° N 04:14:31 35° N 04:14:31 35° N
Cosmos 407 Rocket 4.3 04:15:08 34° SSE 04:16:52 47° ESE 04:21:55 10° NNE
Aureole 3 Rocket 4.4 04:14:17 19° SSE 04:18:45 52° E 04:23:24 10° NNE
USA 234 3.2 04:15:50 10° NE 04:22:23 78° NW 04:24:16 50° WSW
Cosmos 1862 3.7 04:21:44 10° N 04:25:01 59° N 04:25:01 59° N
Cosmos 1408 3.3 04:22:26 10° N 04:25:20 50° NNE 04:25:20 50° NNE
COSMOS 2406 3.2 04:27:10 56° W 04:27:52 61° WNW 04:33:34 10° NNE
IRS-1C Rocket 4.3 04:24:21 10° NNE 04:29:36 66° ESE 04:32:04 32° S
Cosmos 1943 Rocket 3.2 04:26:03 10° NW 04:29:08 29° WNW 04:29:08 29° WNW
Cosmos 1908 Rocket 3.3 04:28:19 10° N 04:32:41 80° W 04:32:43 80° W
Abrixas rocket 3.7 04:34:10 33° N 04:34:40 35° NNE 04:37:47 10° E
CZ-4B R/B 3.6 04:30:07 10° NNE 04:35:20 56° E 04:39:01 19° S
Cosmos 2074 Rocket 3.9 04:29:14 10° N 04:35:26 73° W 04:39:23 24° S
Cosmos 2327 Rocket 4.3 04:31:03 10° N 04:37:10 73° W 04:41:20 22° S
IRS-1D 4.5 04:34:12 10° N 04:38:39 31° WNW 04:38:39 31° WNW
ARIANE 5 R/B 3.6 04:35:47 10° N 04:39:56 28° WNW 04:39:56 28° WNW
PSLV R/B 4.1 04:41:19 43° SE 04:41:19 43° SE 04:43:45 10° ESE
CZ-2C R/B 3.8 04:38:29 10° SSE 04:42:54 73° ENE 04:47:20 10° N
BREEZE-M DEB (TANK) 3.0 04:43:40 64° NE 04:43:40 64° NE 04:47:07 10° NE
Cosmos 2154 Rocket 4.5 04:37:07 10° N 04:43:25 63° E 04:49:42 10° SSE
Cosmos 2184 Rocket 4.0 04:37:50 10° NNW 04:44:08 65° W 04:48:43 19° S
Cosmos 2082 Rocket 4.4 04:44:06 10° SSE 04:48:28 23° E 04:52:50 10° NE
Cosmos 1703 Rocket 3.6 04:48:19 53° WSW 04:49:00 60° W 04:53:27 10° N
Cosmos 1933 4.0 04:50:17 39° WNW 04:50:17 39° WNW 04:53:43 10° N
CENTAUR R/B 3.4 04:47:56 28° W 04:50:01 34° NW 04:56:13 10° NNE
ARGOS Delta rocket 3.8 04:47:24 10° N 04:51:41 51° WNW 04:52:21 46° WSW
Okean O Rocket 1.5 04:48:16 10° N 04:52:44 73° WNW 04:54:19 39° SSW
Cosmos 2221 Rocket 3.5 04:51:53 48° SW 04:52:49 61° W 04:57:12 10° N
Cosmos 1656 Rocket 3.5 04:49:06 10° NNW 04:54:25 58° WSW 04:59:42 10° S
Cosmos 1610 Rocket 4.4 04:50:20 10° N 04:56:38 73° W 05:02:50 10° S
Atlas Centaur 2 2.5 04:56:55 27° S 04:57:24 28° S 05:01:23 10° ESE
Cosmos 1825 3.2 04:55:41 10° NNW 04:58:11 30° WNW 04:58:11 30° WNW
ATLAS 5 CENTAUR R/B 4.1 05:02:18 11° NW 05:04:09 12° NW 05:06:20 10° N
PSLV R/B 4.4 05:00:04 10° NNE 05:04:22 51° E 05:08:37 10° S
Okean-O 3.6 05:01:03 10° NNE 05:05:20 46° E 05:09:35 10° S
Cosmos 1190 Rocket 4.3 05:04:39 32° WSW 05:06:37 46° WNW 05:11:37 10° N
CZ-4B R/B 2.7 05:05:36 10° N 05:09:18 66° WNW 05:11:12 28° SSW
Okean 1-7 3.1 05:08:56 29° SW 05:10:51 53° W 05:15:08 10° N
Cosmos 2341 Rocket 4.1 05:04:37 10° N 05:10:58 81° E 05:17:19 10° S
USA 129 3.9 05:15:33 20° ENE 05:15:33 20° ENE 05:16:42 10° NNE
COSMOS 2487 3.3 05:15:19 31° W 05:15:54 34° WNW 05:19:13 10° N
Cosmos 2151 Rocket 4.1 05:12:05 10° N 05:16:26 61° E 05:20:46 10° SSE
CZ-2D R/B 3.7 05:16:37 10° NNW 05:19:45 16° WNW 05:20:47 15° WNW
Cosmos 1954 Rocket 3.9 05:19:31 14° SSW 05:23:57 73° WNW 05:29:10 10° NNE
Thor Agena Rocket 3.5 05:21:44 10° S 05:26:50 67° WSW 05:32:03 10° NNW
MOZ.5/SAFIR/RUBIN 5/SL-8 4.5 05:25:19 11° SSW 05:29:11 31° W 05:33:18 10° NW
Meteor 1-31 Rocket 4.2 05:26:27 10° NNE 05:30:03 39° E 05:33:38 10° SSE
Cosmos 1356 4.1 05:31:21 10° N 05:34:51 59° E 05:38:20 10° SSE
Resurs 1-4 Rocket 4.1 05:38:52 10° NW 05:39:33 10° WNW 05:40:13 10° WNW
Meteor 1-25 Rocket 4.1 05:34:16 10° N 05:39:50 81° W 05:45:25 10° S
Okean 2 Rocket 3.9 05:36:01 10° NNW 05:39:56 30° W 05:43:51 10° SSW
Meteor 1-20 Rocket 4.3 05:36:02 10° N 05:41:48 89° E 05:47:37 10° S
Cosmos 1674 Rocket 3.6 05:41:25 10° S 05:45:51 89° E 05:50:17 10° N
ADEOS II 2.1 05:42:13 10° N 05:47:27 69° WNW 05:52:39 10° SSW
Meteor 2-10 Rocket 3.9 05:43:48 10° SSW 05:49:27 54° WNW 05:55:00 10° N
Cosmos 1850 Rocket 4.0 05:44:51 10° SSW 05:50:08 86° WNW 05:55:30 10° NNE
MOS 1 Rocket 3.5 05:48:21 10° NNE 05:52:37 65° E 05:56:55 10° S
Meteor PRIRODA 3.8 05:49:05 10° N 05:52:48 58° WNW 05:56:30 10° SSW
SeaSat 1 3.2 05:49:12 10° S 05:53:28 29° WSW 05:57:46 10° NW
Cosmos 2278 3.7 05:51:56 10° NNW 05:57:37 67° WSW 06:03:15 10° S
GPS 2-05 Rocket1 2.9 05:54:47 11° W 05:57:56 57° S 06:01:12 10° ESE
Cosmos 1400 Rocket 2.7 06:01:02 10° N 06:04:56 84° W 06:08:48 10° S
Cosmos 1300 Rocket 3.5 06:00:55 10° N 06:05:16 90° WSW 06:09:34 10° S
Cosmos 1378 Rocket 3.9 06:01:34 10° S 06:05:51 71° E 06:10:10 10° NNE
Cosmos 1980 Rocket 4.3 06:00:51 10° N 06:05:56 32° ENE 06:10:57 10° ESE
Cosmos 2366 rocket 4.0 06:00:07 10° N 06:06:21 86° W 06:12:29 10° S
Cosmos 1140 Rocket 4.0 06:05:09 10° SW 06:09:56 39° WNW 06:14:46 10° N
Cosmos 2369 3.8 06:07:29 10° NNW 06:13:04 55° WSW 06:18:38 10° S
